Hourly Data Report for October 23, 2013

All times are specified in Local Standard Time (LST). Add 1 hour to adjust for Daylight Saving Time where and when it is observed.

QIKIQTARJUAQ A
NUNAVUT

67°32'48.000" N
64°01'54.000" W
5.50 m
2400577
YVM

Download Data

Hourly Data (October 2013)
Hourly Data Report for October 23, 2013
Temp Definition
°C
Dew Point Temp Definition
°C
Rel Hum Definition
%
Wind Dir Definition
10's deg

Wind Spd Definition
km/h
Visibility Definition
km
Stn Press Definition
kPa
Hmdx Definition


Wind Chill Definition


Weather Definition


TIME
00:00 Legend Double Dagger -4.8 -8.1 78 15 5 16.1 101.55   -7 LegendNANA
01:00 Legend Double Dagger -5.9 -8.4 83 18 8 16.1 101.52   -10 LegendNANA
02:00 Legend Double Dagger -6.4 -9.4 79 19 13 16.1 101.51   -12 LegendNANA
03:00 Legend Double Dagger -6.3 -9.4 79 14 9 16.1 101.49   -11 LegendNANA
04:00 Legend Double Dagger -6.2 -9.5 77 19 11 16.1 101.47   -11 LegendNANA
05:00 Legend Double Dagger -6.4 -9.8 77 19 8 16.1 101.45   -10 LegendNANA
06:00 Legend Double Dagger -7.0 -10.3 78 15 8 16.1 101.43   -11 LegendNANA
07:00 Legend Double Dagger -7.0 -10.0 79 19 11 16.1 101.39   -12 LegendNANA
08:00 Legend Double Dagger -7.1 -10.4 78 19 13 16.1 101.36   -13 LegendNANA
09:00 Legend Double Dagger -8.3 -11.3 79 18 5 16.1 101.35   -11 LegendNANA
10:00 Legend Double Dagger -7.3 -10.4 79 17 9 16.1 101.32   -12 LegendNANA
11:00 Legend Double Dagger -6.7 -10.1 77 14 11 16.1 101.30   -12 LegendNANA
12:00 Legend Double Dagger -5.2 -9.5 72 19 8 16.1 101.29   -9 LegendNANA
13:00 Legend Double Dagger -5.4 -9.2 75 20 11 16.1 101.27   -10 LegendNANA
14:00 Legend Double Dagger -4.7 -9.4 70 19 13 16.1 101.26   -10 LegendNANA
15:00 Legend Double Dagger -7.9 -11.0 79 15 5 16.1 101.26   -11 LegendNANA
16:00 Legend Double Dagger -5.4 -9.4 74 19 17 16.1 101.26   -11 LegendNANA
17:00 Legend Double Dagger -5.3 -9.3 74 19 13 16.1 101.26   -10 LegendNANA
18:00 Legend Double Dagger -6.9 -10.5 76   0 16.1 101.27     LegendNANA
19:00 Legend Double Dagger -6.4 -10.3 74 18 5 16.1 101.24   -9 LegendNANA
20:00 Legend Double Dagger -7.8 -10.8 79 16 8 16.1 101.22   -12 LegendNANA
21:00 Legend Double Dagger -7.2 -10.1 80 19 17 16.1 101.19   -14 LegendNANA
22:00 Legend Double Dagger -6.7 -10.2 76 15 9 16.1 101.17   -11 LegendNANA
23:00 Legend Double Dagger -7.1 -10.1 79 14 9 16.1 101.14   -11 LegendNANA

Notes on Data Quality.

Legend

  • E = Estimated
  • M = Missing
  • NA = Not Available
  • ‡ = Partner data that is not subject to review by the National Climate Archives
Date modified: